Total_Precipitation_Accumulation
0.33 0.36 0.47 0.50 0.43 0.42 0.50 0.59 0.75 0.73 0.70 0.57 0.53 0.57 0.60 0.57 0.53 0.51 0.44 0.38 0.38 0.38 0.42 0.43 0.43 0.45 0.45 0.45 0.51 0.59 0.72 0.84 0.88 0.90 0.93 0.89 0.82 0.80 0.84 0.81 0.80 0.95 1.11 1.27
0.24 0.24 0.32 0.38 0.39 0.39 0.39 0.43 0.54 0.61 0.60 0.47 0.43 0.42 0.42 0.40 0.34 0.34 0.35 0.30 0.28 0.28 0.30 0.31 0.29 0.30 0.31 0.39 0.48 0.54 0.62 0.73 0.89 0.92 0.85 0.80 0.73 0.72 0.75 0.74 0.71 0.80 0.95 1.12
0.34 0.29 0.32 0.54 0.54 0.54 0.56 0.49 0.49 0.44 0.35 0.23 0.23 0.25 0.29 0.29 0.29 0.33 0.31 0.25 0.23 0.24 0.25 0.26 0.27 0.31 0.34 0.42 0.50 0.49 0.56 0.70 0.89 0.88 0.76 0.70 0.75 0.79 0.75 0.73 0.74 0.78 0.82 0.84
0.39 0.42 0.71 0.87 0.63 0.60 0.56 0.36 0.22 0.15 0.14 0.13 0.19 0.18 0.17 0.19 0.21 0.24 0.23 0.19 0.18 0.17 0.17 0.18 0.22 0.26 0.30 0.34 0.38 0.41 0.48 0.59 0.75 0.75 0.72 0.75 0.74 0.72 0.67 0.62 0.61 0.65 0.67 0.71
0.44 0.48 0.70 0.67 0.43 0.36 0.36 0.25 0.10 0.08 0.09 0.11 0.14 0.13 0.11 0.12 0.13 0.13 0.13 0.10 0.09 0.10 0.09 0.09 0.10 0.12 0.16 0.19 0.22 0.27 0.36 0.45 0.56 0.57 0.61 0.63 0.61 0.60 0.56 0.52 0.54 0.56 0.60 0.68
0.57 0.69 0.69 0.36 0.19 0.17 0.24 0.31 0.10 0.05 0.05 0.05 0.07 0.11 0.08 0.06 0.07 0.08 0.07 0.06 0.04 0.04 0.04 0.04 0.04 0.07 0.09 0.13 0.16 0.19 0.27 0.35 0.45 0.47 0.49 0.50 0.55 0.56 0.56 0.52 0.50 0.51 0.53 0.57
0.57 0.78 0.63 0.26 0.13 0.13 0.26 0.33 0.12 0.05 0.03 0.03 0.03 0.05 0.04 0.05 0.05 0.06 0.06 0.04 0.03 0.03 0.03 0.03 0.05 0.05 0.05 0.09 0.12 0.14 0.17 0.23 0.30 0.38 0.45 0.52 0.57 0.57 0.60 0.57 0.53 0.51 0.57 0.59
0.51 0.66 0.60 0.24 0.17 0.22 0.22 0.13 0.07 0.04 0.03 0.02 0.02 0.02 0.02 0.03 0.03 0.05 0.05 0.04 0.04 0.03 0.03 0.04 0.05 0.05 0.04 0.06 0.09 0.10 0.11 0.17 0.25 0.34 0.42 0.51 0.60 0.63 0.61 0.61 0.59 0.60 0.61 0.64
0.53 0.65 0.45 0.27 0.24 0.22 0.17 0.12 0.06 0.03 0.02 0.02 0.02 0.01 0.01 0.02 0.03 0.04 0.05 0.04 0.04 0.04 0.03 0.03 0.04 0.05 0.05 0.06 0.07 0.07 0.09 0.13 0.20 0.24 0.27 0.33 0.42 0.52 0.58 0.60 0.60 0.60 0.64 0.72
0.41 0.38 0.24 0.22 0.21 0.16 0.12 0.10 0.05 0.03 0.02 0.02 0.02 0.02 0.01 0.02 0.02 0.03 0.03 0.04 0.04 0.04 0.04 0.04 0.04 0.04 0.06 0.06 0.06 0.06 0.09 0.12 0.14 0.16 0.16 0.18 0.27 0.35 0.41 0.49 0.54 0.62 0.68 0.76
0.33 0.32 0.21 0.15 0.15 0.12 0.10 0.07 0.04 0.03 0.02 0.02 0.02 0.02 0.02 0.02 0.02 0.03 0.03 0.03 0.03 0.03 0.04 0.05 0.04 0.05 0.06 0.07 0.08 0.08 0.08 0.08 0.09 0.12 0.13 0.15 0.21 0.29 0.33 0.41 0.44 0.50 0.60 0.72
0.34 0.31 0.25 0.14 0.12 0.10 0.09 0.07 0.05 0.03 0.03 0.03 0.02 0.02 0.01 0.02 0.02 0.03 0.03 0.03 0.04 0.04 0.04 0.05 0.05 0.05 0.07 0.09 0.09 0.12 0.14 0.11 0.10 0.12 0.15 0.17 0.19 0.22 0.21 0.24 0.25 0.29 0.35 0.42
0.19 0.19 0.16 0.11 0.09 0.08 0.08 0.06 0.04 0.03 0.03 0.03 0.03 0.02 0.02 0.02 0.03 0.03 0.03 0.04 0.06 0.06 0.06 0.05 0.05 0.05 0.06 0.08 0.12 0.20 0.23 0.20 0.17 0.15 0.16 0.18 0.18 0.20 0.21 0.19 0.16 0.16 0.18 0.25
0.11 0.12 0.13 0.11 0.09 0.08 0.07 0.05 0.03 0.02 0.02 0.03 0.03 0.03 0.03 0.03 0.03 0.03 0.03 0.04 0.07 0.07 0.08 0.06 0.05 0.06 0.06 0.06 0.08 0.10 0.11 0.14 0.16 0.19 0.17 0.17 0.21 0.29 0.33 0.35 0.28 0.19 0.14 0.17
0.09 0.10 0.11 0.10 0.08 0.08 0.08 0.06 0.04 0.03 0.03 0.03 0.03 0.02 0.03 0.02 0.03 0.03 0.04 0.04 0.05 0.07 0.06 0.06 0.06 0.07 0.07 0.06 0.06 0.07 0.09 0.12 0.19 0.22 0.19 0.19 0.26 0.36 0.41 0.39 0.35 0.26 0.16 0.13
0.08 0.08 0.08 0.08 0.08 0.06 0.06 0.06 0.05 0.04 0.03 0.03 0.03 0.03 0.03 0.02 0.03 0.03 0.03 0.04 0.05 0.07 0.06 0.05 0.05 0.06 0.07 0.07 0.09 0.10 0.13 0.16 0.22 0.27 0.24 0.25 0.28 0.27 0.26 0.28 0.27 0.21 0.17 0.16
0.06 0.08 0.09 0.09 0.08 0.07 0.06 0.06 0.05 0.04 0.04 0.04 0.04 0.03 0.03 0.02 0.02 0.02 0.03 0.04 0.04 0.06 0.06 0.06 0.06 0.07 0.08 0.09 0.08 0.11 0.15 0.13 0.15 0.25 0.28 0.25 0.24 0.22 0.23 0.25 0.23 0.20 0.16 0.15
0.04 0.06 0.08 0.10 0.09 0.07 0.05 0.06 0.05 0.04 0.04 0.04 0.04 0.04 0.04 0.04 0.03 0.03 0.03 0.03 0.03 0.04 0.06 0.07 0.08 0.08 0.08 0.09 0.10 0.10 0.11 0.12 0.13 0.22 0.27 0.23 0.20 0.21 0.23 0.23 0.21 0.19 0.17 0.14
0.05 0.06 0.07 0.08 0.08 0.07 0.06 0.05 0.05 0.05 0.04 0.04 0.05 0.06 0.06 0.05 0.04 0.04 0.03 0.03 0.04 0.04 0.05 0.07 0.08 0.08 0.07 0.08 0.09 0.10 0.10 0.10 0.11 0.16 0.17 0.14 0.15 0.19 0.21 0.22 0.20 0.19 0.17 0.16
0.06 0.06 0.05 0.05 0.04 0.04 0.05 0.05 0.05 0.05 0.06 0.05 0.05 0.06 0.05 0.04 0.04 0.04 0.05 0.06 0.06 0.06 0.07 0.08 0.07 0.07 0.07 0.08 0.10 0.11 0.11 0.11 0.12 0.14 0.15 0.17 0.21 0.22 0.20 0.20 0.22 0.22 0.20 0.19
0.05 0.05 0.04 0.04 0.03 0.04 0.04 0.04 0.04 0.04 0.05 0.06 0.05 0.05 0.05 0.05 0.05 0.06 0.07 0.08 0.07 0.07 0.07 0.08 0.08 0.09 0.10 0.11 0.12 0.11 0.12 0.12 0.13 0.15 0.15 0.18 0.21 0.22 0.21 0.21 0.23 0.26 0.26 0.24
0.05 0.05 0.04 0.04 0.04 0.05 0.05 0.05 0.04 0.04 0.05 0.06 0.07 0.06 0.05 0.05 0.06 0.06 0.07 0.08 0.07 0.07 0.08 0.08 0.09 0.10 0.12 0.14 0.13 0.11 0.11 0.11 0.13 0.16 0.18 0.20 0.22 0.24 0.22 0.22 0.24 0.26 0.29 0.30
0.03 0.04 0.05 0.05 0.05 0.06 0.06 0.07 0.06 0.05 0.05 0.06 0.08 0.10 0.11 0.09 0.08 0.08 0.08 0.07 0.08 0.09 0.09 0.09 0.10 0.13 0.16 0.15 0.14 0.13 0.12 0.12 0.13 0.15 0.18 0.20 0.21 0.23 0.24 0.24 0.25 0.27 0.29 0.33
0.05 0.05 0.05 0.07 0.07 0.08 0.09 0.09 0.08 0.07 0.05 0.06 0.08 0.12 0.15 0.15 0.12 0.09 0.09 0.10 0.10 0.11 0.10 0.10 0.11 0.16 0.19 0.16 0.16 0.16 0.15 0.15 0.16 0.16 0.17 0.18 0.21 0.23 0.25 0.28 0.30 0.30 0.32 0.34
0.07 0.07 0.07 0.07 0.09 0.09 0.10 0.10 0.09 0.07 0.06 0.06 0.06 0.08 0.11 0.13 0.13 0.12 0.12 0.11 0.12 0.12 0.10 0.12 0.16 0.18 0.16 0.15 0.17 0.18 0.19 0.20 0.21 0.23 0.23 0.23 0.25 0.27 0.28 0.29 0.31 0.35 0.38 0.40
0.07 0.07 0.07 0.07 0.08 0.09 0.11 0.11 0.10 0.09 0.07 0.07 0.07 0.07 0.08 0.09 0.10 0.10 0.10 0.10 0.10 0.11 0.11 0.11 0.12 0.12 0.11 0.12 0.14 0.14 0.16 0.18 0.21 0.22 0.23 0.25 0.27 0.29 0.30 0.30 0.31 0.35 0.40 0.44
0.08 0.08 0.08 0.07 0.07 0.09 0.11 0.12 0.12 0.12 0.11 0.10 0.10 0.08 0.08 0.10 0.11 0.11 0.11 0.10 0.09 0.10 0.11 0.12 0.12 0.12 0.12 0.13 0.13 0.13 0.13 0.15 0.17 0.20 0.22 0.25 0.26 0.28 0.29 0.31 0.34 0.38 0.42 0.48